Location: Remedello Sotto
(45.2500°N, 10.3667°E)
Time: 13:41:53
(UTC+00:00)

MOS 1-B - Visible Passes

Search period start: 25 September 2023 00:00
Search period end: 05 October 2023 00:00
Orbit: 904 x 913 km, 99.4° (Epoch: 25 September)

Date Brightness Start Highest point End Pass type
(mag) Time Alt. Az. Time Alt. Az. Time Alt. Az.
25 Sep 4.5 18:06:57 10° SE 18:12:30 51° ENE 18:18:05 10° N visible
25 Sep 6.2 19:49:50 10° SSW 19:54:35 26° W 19:59:22 10° NW visible
26 Sep 4.4 18:12:01 10° SE 18:17:37 56° ENE 18:23:16 10° N visible
26 Sep 6.4 19:55:14 10° SW 19:59:47 24° W 20:04:22 10° NW visible
27 Sep 4.4 18:17:06 10° SSE 18:22:46 61° ENE 18:28:28 10° N visible
27 Sep 6.5 20:00:39 10° SW 20:05:00 22° W 20:09:22 10° NW visible
28 Sep 4.3 18:22:12 10° SSE 18:27:54 67° ENE 18:33:38 10° N visible
28 Sep 6.6 20:06:07 10° SW 20:10:13 20° W 20:14:20 10° NW visible
29 Sep 4.3 18:27:18 10° SSE 18:33:01 73° ENE 18:38:49 10° NNW visible
29 Sep 6.7 20:11:37 10° SW 20:15:25 18° W 20:19:16 10° NW visible
30 Sep 4.3 18:32:25 10° SSE 18:38:10 80° ENE 18:43:58 10° NNW visible
30 Sep 6.8 20:17:09 10° SW 20:20:38 16° W 20:24:09 10° NW visible
01 Oct 4.3 18:37:32 10° SSE 18:43:19 86° ENE 18:49:08 10° NNW visible
01 Oct 6.9 20:22:45 10° WSW 20:25:52 15° W 20:28:59 10° NW visible
02 Oct 4.3 18:42:41 10° SSE 18:48:27 87° WSW 18:54:17 10° NNW visible
02 Oct 7.0 20:28:27 10° WSW 20:31:05 13° W 20:33:45 10° WNW visible
03 Oct 4.4 18:47:50 10° SSE 18:53:37 80° WSW 18:59:26 10° NNW visible
03 Oct 7.0 20:34:17 10° WSW 20:36:19 12° W 20:38:22 10° WNW visible
04 Oct 4.5 18:53:05 10° S 18:58:45 73° WSW 19:04:34 10° NNW visible
04 Oct 7.1 20:40:30 10° W 20:41:33 10° W 20:42:37 10° WNW visible
